Lazy 5 Park, Sparks, Nevada Weather observations

Data are for 10 minute period ending at time listed.
 Day   Time   Solar   Ave.   Ave.  Ave.  Vector  Max.   Baro.   Total    
  of    of     Rad.   Air    Rel.  Wind   Wind   Wind  Press.  Precip.   
Year   Day            Temp.  Hum.  Speed  Dir.   Gust                    
2026   (PST)  Kw/m2    F      %     mph   deg.    mph    mb.     in.     
-------------------------------------------------------------------------
 127   11:30   0.78   76.2    19    4.9    75    11.4   99999.0    0.00 
 127   11:40   0.79   76.7    19    6.0    75    11.7   99999.0    0.00 
 127   11:50   0.79   76.6    20    5.9    66    15.6   99999.0    0.00 
 127   12:00   0.79   77.7    18    6.0    84    12.4   99999.0    0.00 
 127   12:10   0.79   77.6    18    6.7    78    11.7   99999.0    0.00 
 127   12:20   0.79   78.0    16    8.1    66    16.4   99999.0    0.00 
 127   12:30   0.79   78.8    15    6.9    71    11.4   99999.0    0.00 
 127   12:40   0.79   78.8    15    6.8    67    12.8   99999.0    0.00 
 127   12:50   0.79   78.6    15    8.2    64    13.9   99999.0    0.00 
 127   13:00   0.78   79.0    14    7.3    69    14.2   99999.0    0.00 
 127   13:10   0.77   77.8    15    9.4    48    16.4   99999.0    0.00 
 127   13:20   0.77   78.7    14    7.5    80    13.5   99999.0    0.00 
 127   13:30   0.76   79.3    14    8.8    71    14.6   99999.0    0.00 
 127   13:40   0.75   79.1    14    8.4    63    13.9   99999.0    0.00 
 127   13:50   0.74   79.0    13    9.0    74    16.7   99999.0    0.00 
 127   14:00   0.72   79.1    13    8.6    68    14.9   99999.0    0.00 
 127   14:10   0.71   79.3    13    8.3    69    15.3   99999.0    0.00 
 127   14:20   0.69   79.4    13    8.5    71    14.6   99999.0    0.00 
 127   14:30   0.67   78.9    14    9.8    60    15.3   99999.0    0.00 
 127   14:40   0.66   79.2    14    8.9    69    16.4   99999.0    0.00 
 127   14:50   0.64   79.0    14    8.0    64    15.3   99999.0    0.00 
 127   15:00   0.62   79.2    13    9.0    67    14.9   99999.0    0.00 
 127   15:10   0.59   79.2    14    7.9    60    16.7   99999.0    0.00 
 127   15:20   0.34   78.7    14    8.9    57    14.6   99999.0    0.00 
 127   15:30   0.32   78.5    14    9.2    60    16.7   99999.0    0.00 
 127   15:40   0.52   78.4    14    8.1    64    14.6   99999.0    0.00 
 127   15:50   0.50   78.3    15    8.6    67    13.5   99999.0    0.00 
 127   16:00   0.47   78.0    17    7.5    66    13.5   99999.0    0.00 
 127   16:10   0.44   77.8    17    8.2    69    14.9   99999.0    0.00 
 127   16:20   0.41   77.9    19    8.1    68    13.9   99999.0    0.00 
 127   16:30   0.39   77.0    20    8.9    63    18.9   99999.0    0.00 
 127   16:40   0.36   76.7    20    8.0    72    14.6   99999.0    0.00 
 127   16:50   0.32   76.4    20    9.2    69    14.2   99999.0    0.00 
 127   17:00   0.28   75.7    20    9.3    70    17.8   99999.0    0.00 
 127   17:10   0.26   75.5    21    8.5    71    14.9   99999.0    0.00 
 127   17:20   0.23   74.9    22   10.2    58    16.0   99999.0    0.00 
 127   17:30   0.20   74.5    23    9.7    58    17.8   99999.0    0.00 
 127   17:40   0.18   73.9    25    9.8    58    14.9   99999.0    0.00 
 127   17:50   0.17   73.7    26    9.0    61    15.3   99999.0    0.00 
 127   18:00   0.12   73.0    26    9.4    60    14.9   99999.0    0.00 
 127   18:10   0.09   72.3    27    9.5    57    15.6   99999.0    0.00 
 127   18:20   0.06   71.7    28    9.5    54    13.9   99999.0    0.00 
 127   18:30   0.04   71.1    29    8.5    52    13.5   99999.0    0.00 
 127   18:40   0.05   70.5    30    7.4    50    10.6   99999.0    0.00 
 127   18:50   0.03   69.5    30    7.5    48    11.7   99999.0    0.00 
 127   19:00   0.01   68.6    29    7.5    48    13.1   99999.0    0.00 
 127   19:10   0.01   68.0    29    7.4    41    11.7   99999.0    0.00 
 127   19:20   0.00   66.9    30    7.2    33    10.6   99999.0    0.00 
 127   19:30   0.00   66.3    31    6.9    25    11.0   99999.0    0.00 
 127   19:40   0.00   65.4    33    5.8     3     9.6   99999.0    0.00 
 127   19:50   0.00   64.1    36    2.8   298     8.5   99999.0    0.00 
 127   20:00   0.00   61.9    40    3.6   312     8.5   99999.0    0.00 
 127   20:10   0.00   61.7    40    3.9   303     6.3   99999.0    0.00 
 127   20:20   0.00   62.0    38    1.9   221     5.3   99999.0    0.00 
 127   20:30   0.00   62.0    37    1.0   248     3.5   99999.0    0.00 
 127   20:40   0.00   61.2    37    2.6   315     4.2   99999.0    0.00 
 127   20:50   0.00   61.1    38    2.0   286     4.9   99999.0    0.00 
 127   21:00   0.00   61.8    36    3.1    26    10.6   99999.0    0.00 
 127   21:10   0.00   63.1    34    2.2    10     6.7   99999.0    0.00 
 127   21:20   0.00   62.3    34    0.4   263     3.5   99999.0    0.00 
 127   21:30   0.00   60.9    36    1.1    10     2.8   99999.0    0.00 
 127   21:40   0.00   59.3    41    1.1   287     3.5   99999.0    0.00 
 127   21:50   0.00   57.0    44    1.2   251     2.8   99999.0    0.00 
 127   22:00   0.00   57.1    41    0.2   282     2.8   99999.0    0.00 
 127   22:10   0.00   58.3    36    1.2   109     2.8   99999.0    0.00 
 127   22:20   0.00   58.2    36    1.2   140     3.5   99999.0    0.00 
 127   22:30   0.00   58.8    36    1.6    91     3.5   99999.0    0.00 
 127   22:40   0.00   57.0    41    2.8   225     6.0   99999.0    0.00 
 127   22:50   0.00   56.7    42    2.1   320     6.0   99999.0    0.00 
 127   23:00   0.00   57.2    38    1.5   102     4.9   99999.0    0.00 
 127   23:10   0.00   57.1    36    1.4   177     2.8   99999.0    0.00 
 127   23:20   0.00   56.7    38    1.0   216     3.1   99999.0    0.00 
 127   23:30   0.00   56.8    37    2.2   247     5.6   99999.0    0.00 
 127   23:40   0.00   55.9    41    2.9   225     7.8   99999.0    0.00 
 127   23:50   0.00   55.1    44    0.7   285     2.8   99999.0    0.00 
 128    0:00   0.00   55.1    42    2.5   185     4.2   99999.0    0.00 
 128    0:10   0.00   53.7    47    2.5    46     3.8   99999.0    0.00 
 128    0:20   0.00   53.4    47    1.3    21     3.5   99999.0    0.00 
 128    0:30   0.00   53.5    45    2.9   124     6.7   99999.0    0.00 
 128    0:40   0.00   54.5    42    2.2   287     3.5   99999.0    0.00 
 128    0:50   0.00   53.4    45    1.9   241     3.1   99999.0    0.00 
 128    1:00   0.00   51.7    52    0.3     6     2.1   99999.0    0.00 
 128    1:10   0.00   51.0    51    2.4   318     5.6   99999.0    0.00 
 128    1:20   0.00   49.2    54    3.8   264     5.6   99999.0    0.00 
 128    1:30   0.00   50.1    50    1.5   206     3.1   99999.0    0.00 
 128    1:40   0.00   50.8    49    2.1   140     3.1   99999.0    0.00 
 128    1:50   0.00   50.1    52    2.5   131     4.2   99999.0    0.00 
 128    2:00   0.00   50.3    52    2.2    93     4.2   99999.0    0.00 
 128    2:10   0.00   51.2    48    1.9   140     3.8   99999.0    0.00 
 128    2:20   0.00   50.5    49    1.8   152     4.9   99999.0    0.00 
 128    2:30   0.00   49.8    52    1.0   131     3.8   99999.0    0.00 
 128    2:40   0.00   48.6    54    1.0    67     3.1   99999.0    0.00 
 128    2:50   0.00   48.1    53    1.6    87     3.8   99999.0    0.00 
 128    3:00   0.00   46.1    60    0.5   300     3.1   99999.0    0.00 
 128    3:10   0.00   45.1    61    1.7   198     3.1   99999.0    0.00 
 128    3:20   0.00   45.6    62    0.6   338     2.1   99999.0    0.00 
 128    3:30   0.00   46.3    58    1.5    98     2.8   99999.0    0.00 
 128    3:40   0.00   45.9    58    1.9   177     3.5   99999.0    0.00 
 128    3:50   0.00   44.1    64    2.2   200     3.1   99999.0    0.00 
 128    4:00   0.00   44.5    64    1.5   104     3.5   99999.0    0.00 
 128    4:10   0.00   44.7    62    2.6    98     4.6   99999.0    0.00 
 128    4:20   0.00   44.3    60    2.0   107     3.1   99999.0    0.00 
 128    4:30   0.00   44.1    60    1.3    84     3.1   99999.0    0.00 
 128    4:40   0.00   43.0    62    1.0   140     3.1   99999.0    0.00 
 128    4:50   0.00   41.6    66    2.0   178     3.5   99999.0    0.00 
 128    5:00   0.00   41.5    68    0.9   161     2.4   99999.0    0.00 
 128    5:10   0.01   40.9    73    1.3    49     2.4   99999.0    0.00 
 128    5:20   0.01   41.3    72    0.1    26     1.7   99999.0    0.00 
 128    5:30   0.03   42.2    69    0.0    24     0.0   99999.0    0.00 
 128    5:40   0.06   43.4    66    0.0    25     0.0   99999.0    0.00 
 128    5:50   0.08   44.2    62    0.9   115     3.8   99999.0    0.00 
 128    6:00   0.10   44.0    64    2.9   192     4.6   99999.0    0.00 
 128    6:10   0.12   45.1    62    2.1   188     2.8   99999.0    0.00 
 128    6:20   0.14   47.2    59    0.5   190     2.4   99999.0    0.00 
 128    6:30   0.17   48.1    56    0.0   148     0.0   99999.0    0.00 
 128    6:40   0.20   49.5    57    0.3   347     2.1   99999.0    0.00 
 128    6:50   0.23   51.5    48    1.5   328     4.2   99999.0    0.00 
 128    7:00   0.26   53.2    45    0.9   288     2.4   99999.0    0.00 
 128    7:10   0.29   55.2    41    1.3   257     3.1   99999.0    0.00 
 128    7:20   0.32   56.3    38    1.7   326     3.5   99999.0    0.00 
 128    7:30   0.35   56.5    37    1.3   329     3.5   99999.0    0.00 
 128    7:40   0.37   57.8    35    1.2   351     3.1   99999.0    0.00 
 128    7:50   0.40   59.0    33    3.2   237     4.9   99999.0    0.00 
 128    8:00   0.43   59.5    32    2.6   249     4.9   99999.0    0.00 
 128    8:10   0.45   59.5    32    1.8   308     3.8   99999.0    0.00 
 128    8:20   0.48   60.5    29    2.1   270     4.6   99999.0    0.00 
 128    8:30   0.50   61.5    28    2.8   282     5.3   99999.0    0.00 
 128    8:40   0.53   62.2    28    3.2   299     6.0   99999.0    0.00 
 128    8:50   0.55   63.1    27    2.3   285     6.0   99999.0    0.00 
 128    9:00   0.58   63.9    27    2.7   322     5.3   99999.0    0.00 
 128    9:10   0.60   64.9    25    3.1   234     6.0   99999.0    0.00 
 128    9:20   0.62   66.4    23    3.5   243     5.3   99999.0    0.00 
 128    9:30   0.64   67.4    21    2.4   215     4.9   99999.0    0.00 
 128    9:40   0.66   67.9    22    2.5   322     3.8   99999.0    0.00 
 128    9:50   0.68   67.6    22    4.0   338     7.4   99999.0    0.00 
 128   10:00   0.69   69.3    18    3.1   147     8.9   99999.0    0.00 
 128   10:10   0.71   69.8    16    2.0   152     5.3   99999.0    0.00 
 128   10:20   0.73   71.4    16    3.5   242     7.1   99999.0    0.00 
 128   10:30   0.74   72.4    16    4.4   273     7.4   99999.0    0.00 
 128   10:40   0.77   72.3    16    3.3   342     7.8   99999.0    0.00 
 128   10:50   0.80   72.9    14    3.8    26     6.7   99999.0    0.00 
 128   11:00   0.83   72.1    15    5.7   357    11.7   99999.0    0.00 
 128   11:10   0.78   72.1    14    4.1   304     8.5   99999.0    0.00 
 128   11:20   0.87   73.0    14    5.4    42     8.9   99999.0    0.00 

Return to Lazy 5 Park graphs page.


Western Regional Climate Center,wrcc@dri.edu